Location: The Saddle
(36.8333°N, 80.3417°W)
Time: 06:48:36
(UTC-04:00)

Vanguard 3 - All Passes

Search period start: 08 July 2025 00:00
Search period end: 18 July 2025 00:00
Orbit: 509 x 3214 km, 33.3° (Epoch: 07 July)

Date Brightness Start Highest point End Pass type
(mag) Time Alt. Az. Time Alt. Az. Time Alt. Az.
08 Jul - 14:22:06 10° SW 14:26:48 46° SSE 14:34:34 10° E daylight
08 Jul - 16:31:39 10° W 16:38:17 72° S 16:50:24 10° E daylight
08 Jul - 18:42:07 10° W 18:51:10 56° SSW 19:06:38 10° SE daylight
08 Jul - 20:54:23 10° W 21:05:03 32° SSW 21:19:51 10° SSE visible
09 Jul - 13:03:43 10° SSW 13:07:13 24° SSE 13:11:56 10° E daylight
09 Jul - 15:12:23 10° WSW 15:17:41 64° S 15:26:58 10° E daylight
09 Jul - 17:22:21 10° W 17:29:43 65° S 17:43:02 10° ESE daylight
09 Jul - 19:33:22 10° W 19:42:56 42° SSW 19:58:04 10° SE daylight
09 Jul - 21:48:03 10° WSW 21:56:57 19° SW 22:07:51 10° S visible
10 Jul - 13:53:25 10° SW 13:57:39 44° SSE 14:04:16 10° E daylight
10 Jul - 16:02:56 10° W 16:08:50 69° S 16:19:27 10° E daylight
10 Jul - 18:13:14 10° W 18:21:17 52° SSW 18:35:12 10° SE daylight
10 Jul - 20:25:22 10° W 20:34:47 28° SSW 20:48:07 10° SSE daylight
11 Jul - 12:34:58 10° SSW 12:38:06 22° SSE 12:42:05 10° E daylight
11 Jul - 14:43:44 10° WSW 14:48:29 62° S 14:56:27 10° E daylight
11 Jul - 16:53:37 10° W 17:00:08 61° S 17:11:53 10° ESE daylight
11 Jul - 19:04:28 10° W 19:12:56 38° SSW 19:26:28 10° SE daylight
11 Jul - 21:19:22 10° WSW 21:26:41 16° SW 21:35:38 10° S visible
12 Jul - 13:24:43 10° SW 13:28:34 42° SSE 13:34:13 10° E daylight
12 Jul - 15:34:16 10° W 15:39:31 66° S 15:48:43 10° ESE daylight
12 Jul - 17:44:27 10° W 17:51:33 48° SSW 18:03:51 10° SE daylight
12 Jul - 19:56:33 10° WSW 20:04:43 25° SSW 20:16:16 10° SSE daylight
13 Jul - 12:06:06 10° SSW 12:09:02 22° SSE 12:12:30 10° ESE daylight
13 Jul - 14:15:04 10° WSW 14:19:21 60° S 14:26:10 10° E daylight
13 Jul - 16:24:55 10° W 16:30:41 57° S 16:40:54 10° ESE daylight
13 Jul - 18:35:42 10° W 18:43:06 33° SSW 18:54:54 10° SE daylight
13 Jul - 20:51:11 10° WSW 20:56:35 14° SSW 21:02:59 10° S visible
14 Jul - 12:55:57 10° SW 12:59:33 41° SSE 13:04:24 10° E daylight
14 Jul - 15:05:36 10° W 15:10:18 62° S 15:18:12 10° ESE daylight
14 Jul - 17:15:44 10° W 17:22:00 43° SSW 17:32:38 10° SE daylight
14 Jul - 19:27:57 10° WSW 19:34:49 21° SSW 19:44:21 10° SSE daylight
15 Jul - 11:37:06 10° SSW 11:40:00 22° SSE 11:43:09 10° ESE daylight
15 Jul - 13:46:22 10° WSW 13:50:18 57° S 13:56:07 10° E daylight
15 Jul - 15:56:15 10° W 16:01:23 52° S 16:10:08 10° ESE daylight
15 Jul - 18:07:02 10° WSW 18:13:27 29° SSW 18:23:23 10° SSE daylight
15 Jul - 20:24:27 10° SW 20:26:39 11° SSW 20:29:02 10° SSW daylight
16 Jul - 10:19:48 10° SSE 10:20:21 10° SSE 10:20:53 10° SE daylight
16 Jul - 12:27:06 10° SW 12:30:34 40° SSE 12:34:49 10° E daylight
16 Jul - 14:36:56 10° W 14:41:11 58° S 14:47:54 10° ESE daylight
16 Jul - 16:47:06 10° W 16:52:35 37° SSW 17:01:34 10° SE daylight
16 Jul - 18:59:36 10° WSW 19:05:05 17° SSW 19:12:20 10° S daylight
17 Jul - 11:07:56 10° SSW 11:10:59 23° SSE 11:14:00 10° ESE daylight
17 Jul - 13:17:36 10° WSW 13:21:18 55° S 13:26:18 10° E daylight
17 Jul - 15:27:36 10° W 15:32:10 46° S 15:39:33 10° ESE daylight
17 Jul - 17:38:31 10° WSW 17:43:56 24° SSW 17:51:58 10° SSE daylight
